+ View the NASA Portal
+ Center for Near-Earth Object Studies
IMPORTANT:
The SSD Announcement email list is now available. Major changes are coming in the near future, including possible hostname and/or URL changes. To be notified of such changes, subscribe to this email list.
Please visit
this page
for more details.
Don't show this message again
JPL Small-Body Database Browser
Search:
[
help
]
233894 (2008 YK29)
Classification:
Main-belt Asteroid
SPK-ID:
2233894
[
Ephemeris
|
Orbit Diagram
|
Orbital Elements
|
Mission Design
|
Physical Parameters
|
Discovery Circumstances
|
Close-Approach Data
]
[ show orbit diagram ]
Orbital Elements at Epoch 2458600.5 (2019-Apr-27.0) TDB
Reference:
JPL 15
(heliocentric ecliptic J2000)
Element
Value
Uncertainty (1-sigma)
Units
e
.1547674891103354
5.9259e-08
a
3.161114295027669
5.098e-08
au
q
2.671876572795449
1.9269e-07
au
i
3.344861974392943
7.0945e-06
deg
node
275.7788058130512
0.00015646
deg
peri
170.6907929375541
0.00016117
deg
M
319.8983658282766
3.9504e-05
deg
t
p
2458829.174793190368
(2019-Dec-11.67479319)
0.00022841
TDB
period
2052.857127866882
5.62
4.966e-05
1.36e-07
d
yr
n
.1753653457481842
4.2422e-09
deg/d
Q
3.650352017259889
5.887e-08
au
Orbit Determination Parameters
# obs. used (total)
246
data-arc span
5790 days (15.85 yr)
first obs. used
2002-11-06
last obs. used
2018-09-13
planetary ephem.
DE431
SB-pert. ephem.
SB431-N16
condition code
0
norm. resid. RMS
.6164
source
ORB
producer
Otto Matic
solution date
2018-Oct-04 09:01:24
Additional Information
Earth MOID
= 1.68824 au
Jupiter MOID
= 1.56887 au
T_jup
= 3.184
[ show covariance matrix ]
[
Ephemeris
|
Orbit Diagram
|
Orbital Elements
|
Mission Design
|
Physical Parameters
|
Discovery Circumstances
|
Close-Approach Data
]
Physical Parameter Table
Parameter
Symbol
Value
Units
Sigma
Reference
Notes
absolute magnitude
H
15.7
n/a
MPO454692
diameter
diameter
4.991
km
1.166
urn:nasa:pds:neowise_diameters_albedos::2.0[mainbelt] (http://adsabs.harvard.edu/abs/2011ApJ...741...68M)
geometric albedo
albedo
0.034
0.019
urn:nasa:pds:neowise_diameters_albedos::2.0[mainbelt] (http://adsabs.harvard.edu/abs/2011ApJ...741...68M)
233894 (2008 YK29)
Discovered 2008-Dec-27 by BATTeRS at Bisei SG Center
Reference:
20100228/Numbers.arc
Last Updated:
2010-03-03
[ show close-approach data ]
Alternate Designations
2008 YK29
= 2004 GJ81
[
Ephemeris
|
Orbit Diagram
|
Orbital Elements
|
Mission Design
|
Physical Parameters
|
Discovery Circumstances
|
Close-Approach Data
]
2019-Dec-11 15:29 UT
(server date/time)
Site Manager:
Ryan S. Park
Webmaster
:
Alan B. Chamberlin